GW2440 Weather Reports


Display with metric or nautical units.
time (UTC)temp
F
wind
direction
speed
MPH
gust
MPH
rain 1hr
in
rain 24hr
in
rain mn
in
humidity
%
barometer
mb
20260506204851 93 187 4.0 5.0 0.00 0.00 0.00 41 1016.5
20260506204349 92 193 1.0 2.0 0.00 0.00 0.00 43 1016.9
20260506203846 92 215 1.0 2.0 0.00 0.00 0.00 43 1016.9
20260506203343 92 247 4.0 5.0 0.00 0.00 0.00 43 1016.9
20260506202840 92 102 0.0 1.0 0.00 0.00 0.00 44 1016.9
20260506202337 91 199 2.0 2.0 0.00 0.00 0.00 43 1016.9
20260506201834 91 210 3.0 3.0 0.00 0.00 0.00 43 1016.9
20260506201331 92 211 6.0 7.0 0.00 0.00 0.00 42 1016.9
20260506200828 91 232 5.0 7.0 0.00 0.00 0.00 44 1016.9
20260506200324 92 201 4.0 5.0 0.00 0.00 0.00 43 1016.9
20260506195820 91 98 2.0 2.0 0.00 0.00 0.00 44 1017.2
20260506195318 93 161 3.0 3.0 0.00 0.00 0.00 42 1017.2
20260506194809 92 199 2.0 2.0 0.00 0.00 0.00 42 1017.2
20260506194305 91 228 3.0 3.0 0.00 0.00 0.00 44 1017.2
20260506193803 92 203 2.0 2.0 0.00 0.00 0.00 43 1017.2
20260506193259 91 100 0.0 2.0 0.00 0.00 0.00 45 1017.2
20260506192756 92 174 2.0 3.0 0.00 0.00 0.00 43 1017.2
20260506192253 91 159 4.0 6.0 0.00 0.00 0.00 44 1017.5
20260506191750 90 37 1.0 2.0 0.00 0.00 0.00 44 1017.5
20260506191246 91 85 5.0 6.0 0.00 0.00 0.00 44 1017.5
20260506190743 91 172 3.0 5.0 0.00 0.00 0.00 43 1017.2
20260506190239 90 50 5.0 7.0 0.00 0.00 0.00 45 1017.5
20260506185737 89 42 5.0 6.0 0.00 0.00 0.00 46 1017.9
20260506185233 90 161 2.0 3.0 0.00 0.00 0.00 46 1017.9
20260506184730 90 150 3.0 5.0 0.00 0.00 0.00 45 1017.9
20260506184228 90 51 4.0 6.0 0.00 0.00 0.00 44 1017.9
20260506183725 89 149 1.0 1.0 0.00 0.00 0.00 46 1017.9
20260506183221 90 89 2.0 5.0 0.00 0.00 0.00 44 1017.9
20260506182718 90 72 3.0 5.0 0.00 0.00 0.00 47 1018.2
20260506182215 91 47 3.0 3.0 0.00 0.00 0.00 45 1018.2
20260506181712 90 44 1.0 2.0 0.00 0.00 0.00 46 1017.9
20260506181210 90 193 1.0 1.0 0.00 0.00 0.00 46 1018.2
20260506180707 89 97 1.0 1.0 0.00 0.00 0.00 47 1018.2
20260506180203 89 56 2.0 2.0 0.00 0.00 0.00 44 1018.2
20260506175700 89 148 4.0 5.0 0.00 0.00 0.00 46 1018.2
20260506175157 89 189 5.0 6.0 0.00 0.00 0.00 45 1018.6
20260506174654 89 203 5.0 8.0 0.00 0.00 0.00 48 1018.2
20260506174151 89 181 2.0 2.0 0.00 0.00 0.00 48 1018.6
20260506173649 88 249 3.0 5.0 0.00 0.00 0.00 51 1018.9
20260506173145 87 173 0.0 0.0 0.00 0.00 0.00 49 1018.6
20260506172642 89 165 1.0 2.0 0.00 0.00 0.00 48 1018.9
20260506172139 88 212 3.0 3.0 0.00 0.00 0.00 50 1018.6
20260506171636 88 216 3.0 3.0 0.00 0.00 0.00 50 1018.9
20260506171134 87 230 5.0 6.0 0.00 0.00 0.00 50 1018.9
20260506170626 87 239 4.0 6.0 0.00 0.00 0.00 51 1018.9
20260506170122 87 260 2.0 2.0 0.00 0.00 0.00 51 1018.9
20260506165621 87 260 3.0 3.0 0.00 0.00 0.00 51 1018.9
20260506165117 87 180 5.0 6.0 0.00 0.00 0.00 49 1018.9
20260506164614 86 251 5.0 6.0 0.00 0.00 0.00 52 1018.9
20260506164112 85 76 3.0 3.0 0.00 0.00 0.00 52 1019.2
20260506163607 86 48 4.0 6.0 0.00 0.00 0.00 55 1019.2
20260506163103 87 177 6.0 7.0 0.00 0.00 0.00 53 1019.2
20260506162559 86 109 0.0 0.0 0.00 0.00 0.00 51 1019.2
20260506162051 86 189 1.0 1.0 0.00 0.00 0.00 51 1019.2
20260506161549 86 108 3.0 3.0 0.00 0.00 0.00 54 1019.2
20260506161045 87 199 3.0 3.0 0.00 0.00 0.00 52 1019.6
20260506160543 86 168 5.0 6.0 0.00 0.00 0.00 53 1019.2
20260506160040 86 161 0.0 0.0 0.00 0.00 0.00 51 1019.2
20260506155539 86 36 2.0 3.0 0.00 0.00 0.00 52 1019.2
20260506153715 85 100 1.0 1.0 0.00 0.00 0.00 54 1019.2
20260506153213 85 138 1.0 1.0 0.00 0.00 0.00 56 1019.2
20260506152709 84 207 2.0 5.0 0.00 0.00 0.00 56 1019.6
20260506152207 84 144 2.0 3.0 0.00 0.00 0.00 59 1019.2
20260506151706 84 129 1.0 1.0 0.00 0.00 0.00 58 1019.2
20260506151202 83 105 2.0 3.0 0.00 0.00 0.00 59 1019.2
20260506150658 85 359 3.0 5.0 0.00 0.00 0.00 63 1019.2
20260506150156 85 14 1.0 2.0 0.00 0.00 0.00 65 1019.2
20260506145653 83 90 1.0 2.0 0.00 0.00 0.00 66 1019.6
20260506145149 82 191 3.0 3.0 0.00 0.00 0.00 69 1019.2
20260506144647 84 18 1.0 3.0 0.00 0.00 0.00 69 1019.2
20260506144144 81 317 0.0 0.0 0.00 0.00 0.00 72 1019.6
20260506143641 82 207 5.0 7.0 0.00 0.00 0.00 72 1019.2
20260506143139 82 184 4.0 5.0 0.00 0.00 0.00 71 1019.6
20260506142637 80 174 4.0 6.0 0.00 0.00 0.00 75 1019.2
20260506142135 81 182 7.0 8.0 0.00 0.00 0.00 75 1018.9
20260506141632 80 201 3.0 5.0 0.00 0.00 0.00 75 1019.2
20260506141130 80 179 5.0 6.0 0.00 0.00 0.00 77 1019.2
20260506140628 79 130 7.0 9.0 0.00 0.00 0.00 79 1019.2
20260506140125 79 187 6.0 7.0 0.00 0.00 0.00 80 1019.2
20260506135622 79 187 5.0 6.0 0.00 0.00 0.00 80 1018.9
20260506135118 78 89 1.0 2.0 0.00 0.00 0.00 82 1019.2
20260506134615 78 191 3.0 5.0 0.00 0.00 0.00 82 1019.2
20260506134110 77 176 4.0 5.0 0.00 0.00 0.00 83 1019.2
20260506133608 77 169 3.0 5.0 0.00 0.00 0.00 84 1018.9
20260506133105 78 118 0.0 1.0 0.00 0.00 0.00 83 1019.2
20260506132602 77 116 3.0 5.0 0.00 0.00 0.00 85 1019.2
20260506132059 76 174 2.0 3.0 0.00 0.00 0.00 86 1019.2
20260506131556 76 200 4.0 5.0 0.00 0.00 0.00 85 1019.2
20260506131052 75 182 6.0 7.0 0.00 0.00 0.00 87 1019.2
20260506130549 75 86 2.0 2.0 0.00 0.00 0.00 87 1018.9
20260506130047 75 176 3.0 5.0 0.00 0.00 0.00 88 1018.9
20260506125545 75 62 0.0 0.0 0.00 0.00 0.00 88 1018.9
20260506125043 74 176 2.0 2.0 0.00 0.00 0.00 89 1018.9
20260506124540 73 163 0.0 0.0 0.00 0.00 0.00 90 1018.9
20260506124038 73 125 3.0 3.0 0.00 0.00 0.00 90 1018.9
20260506123535 72 159 0.0 1.0 0.00 0.00 0.00 92 1018.9
20260506123033 71 149 3.0 3.0 0.00 0.00 0.00 92 1018.9
20260506122529 71 167 0.0 0.0 0.00 0.00 0.00 93 1018.9
20260506122028 70 180 1.0 1.0 0.00 0.00 0.00 93 1018.9
20260506121525 70 143 2.0 2.0 0.00 0.00 0.00 94 1018.6
20260506121021 69 176 4.0 5.0 0.00 0.00 0.00 95 1018.6
20260506120520 68 187 1.0 1.0 0.00 0.00 0.00 95 1018.6
20260506120017 68 178 0.0 0.0 0.00 0.00 0.00 96 1018.9
20260506115514 67 183 0.0 0.0 0.00 0.00 0.00 98 1018.2
20260506115013 67 209 0.0 0.0 0.00 0.00 0.00 99 1018.6
20260506114509 67 209 0.0 0.0 0.00 0.00 0.00 99 1018.6
20260506114008 66 209 0.0 0.0 0.00 0.00 0.00 99 1018.6
20260506113506 65 210 0.0 0.0 0.00 0.00 0.00 99 1018.2
20260506113003 64 210 0.0 0.0 0.00 0.00 0.00 99 1018.6
20260506112459 64 210 0.0 0.0 0.00 0.00 0.00 99 1018.6
20260506111956 64 210 0.0 0.0 0.00 0.00 0.00 99 1018.2
20260506111454 64 210 0.0 0.0 0.00 0.00 0.00 99 1018.2
20260506110951 63 210 0.0 0.0 0.00 0.00 0.00 99 1018.2
20260506110449 64 210 0.0 0.0 0.00 0.00 0.00 99 1018.2
20260506105945 63 209 0.0 0.0 0.00 0.00 0.00 99 1017.9
20260506105442 63 209 0.0 0.0 0.00 0.00 0.00 99 1017.9
20260506104939 63 209 0.0 0.0 0.00 0.00 0.00 99 1017.9
20260506104437 63 209 0.0 0.0 0.00 0.00 0.00 99 1017.9
20260506103936 63 209 0.0 0.0 0.00 0.00 0.00 99 1017.9
20260506103432 62 209 0.0 0.0 0.00 0.00 0.00 99 1017.9
20260506102929 63 209 0.0 0.0 0.00 0.00 0.00 99 1017.5
20260506102427 63 209 0.0 0.0 0.00 0.00 0.00 99 1017.9
20260506101924 62 209 0.0 0.0 0.00 0.00 0.00 99 1017.5
20260506101420 63 209 0.0 0.0 0.00 0.00 0.00 99 1017.9
20260506100918 63 209 0.0 0.0 0.00 0.00 0.00 99 1017.9
20260506100416 63 209 0.0 0.0 0.00 0.00 0.00 99 1017.9
20260506095914 63 209 0.0 0.0 0.00 0.00 0.00 99 1017.9
20260506095412 62 209 0.0 0.0 0.00 0.00 0.00 99 1017.9
20260506094908 63 209 0.0 0.0 0.00 0.00 0.00 99 1017.9
20260506094407 63 210 0.0 0.0 0.00 0.00 0.00 99 1017.9
20260506093904 62 210 0.0 0.0 0.00 0.00 0.00 99 1017.5
20260506093402 62 210 0.0 0.0 0.00 0.00 0.00 99 1017.9
20260506092859 63 210 0.0 0.0 0.00 0.00 0.00 99 1017.5
20260506092357 63 211 0.0 0.0 0.00 0.00 0.00 99 1017.5
20260506091853 63 161 0.0 0.0 0.00 0.00 0.00 99 1017.5
20260506091352 63 161 0.0 0.0 0.00 0.00 0.00 99 1017.5
20260506090848 62 161 0.0 0.0 0.00 0.00 0.00 99 1017.5
20260506090345 62 161 0.0 0.0 0.00 0.00 0.00 99 1017.2
20260506085837 63 162 0.0 0.0 0.00 0.00 0.00 99 1017.2
20260506085333 63 162 0.0 0.0 0.00 0.00 0.00 99 1017.2
20260506084830 63 162 0.0 0.0 0.00 0.00 0.00 99 1017.5
20260506084326 63 162 0.0 0.0 0.00 0.00 0.00 99 1017.5
20260506083823 63 162 0.0 0.0 0.00 0.00 0.00 99 1017.5
20260506083320 62 161 0.0 0.0 0.00 0.00 0.00 99 1017.5
20260506082818 62 162 0.0 0.0 0.00 0.00 0.00 99 1017.2
20260506082314 62 162 0.0 0.0 0.00 0.00 0.00 99 1017.2
20260506081811 62 162 0.0 0.0 0.00 0.00 0.00 99 1017.5
20260506081309 63 162 0.0 0.0 0.00 0.00 0.00 99 1017.5
20260506080806 63 162 0.0 0.0 0.00 0.00 0.00 99 1017.5
20260506080302 63 162 0.0 0.0 0.00 0.00 0.00 99 1017.5
20260506073246 63 162 0.0 0.0 0.00 0.00 0.00 98 1017.9
20260506072743 63 162 0.0 0.0 0.00 0.00 0.00 98 1017.5
20260506072241 62 162 0.0 0.0 0.00 0.00 0.00 98 1017.5
20260506071738 62 162 0.0 0.0 0.00 0.00 0.00 98 1017.5
20260506071236 63 162 0.0 0.0 0.00 0.00 0.00 97 1017.5
20260506070733 63 162 0.0 0.0 0.00 0.00 0.00 97 1017.9
20260506070230 63 162 0.0 0.0 0.00 0.00 0.00 97 1017.5
20260506062207 64 161 0.0 0.0 0.00 0.00 0.00 96 1017.9
20260506061702 64 161 0.0 0.0 0.00 0.00 0.00 96 1018.2
20260506061200 64 161 0.0 0.0 0.00 0.00 0.00 95 1017.9
20260506060659 64 160 0.0 0.0 0.00 0.00 0.00 95 1017.9
20260506060155 64 160 0.0 0.0 0.00 0.00 0.00 95 1018.2
20260506051127 65 164 0.0 0.0 0.00 0.00 0.00 91 1018.6
20260506050626 65 164 0.0 0.0 0.00 0.00 0.00 91 1018.9
20260506050122 65 164 0.0 0.0 0.00 0.00 0.00 90 1018.9
20260506045115 65 165 0.0 0.0 0.00 0.00 0.00 90 1018.9
20260506044613 65 165 0.0 0.0 0.00 0.00 0.00 90 1018.6
20260506044110 66 165 0.0 0.0 0.00 0.00 0.00 89 1018.9
20260506043607 66 165 0.0 0.0 0.00 0.00 0.00 88 1018.9
20260506043105 66 165 0.0 0.0 0.00 0.00 0.00 87 1018.6
20260506042604 66 165 0.0 0.0 0.00 0.00 0.00 87 1018.9
20260506042102 67 165 0.0 0.0 0.00 0.00 0.00 86 1018.6
20260506041601 67 165 0.0 0.0 0.00 0.00 0.00 85 1018.6
20260506041057 67 165 0.0 0.0 0.00 0.00 0.00 84 1018.6
20260506040555 68 165 0.0 0.0 0.00 0.00 0.00 83 1018.6
20260506040051 68 165 0.0 0.0 0.00 0.00 0.00 82 1018.6
20260506035548 68 165 0.0 0.0 0.00 0.00 0.00 82 1018.6
20260506035044 68 165 0.0 0.0 0.00 0.00 0.00 82 1018.6
20260506034542 68 164 0.0 0.0 0.00 0.00 0.00 81 1018.2
20260506034038 69 164 0.0 0.0 0.00 0.00 0.00 80 1018.6
20260506033536 69 163 0.0 0.0 0.00 0.00 0.00 80 1018.6
20260506033033 69 162 0.0 0.0 0.00 0.00 0.00 80 1018.6
20260506032530 68 144 0.0 0.0 0.00 0.00 0.00 80 1018.6
20260506032027 69 144 0.0 0.0 0.00 0.00 0.00 79 1018.2
20260506031525 69 158 0.0 0.0 0.00 0.00 0.00 78 1018.6
20260506031021 69 156 0.0 0.0 0.00 0.00 0.00 78 1018.2
20260506030520 69 156 0.0 0.0 0.00 0.00 0.00 78 1018.2
20260506030016 69 115 0.0 0.0 0.00 0.00 0.00 77 1018.2
20260506025513 69 115 0.0 0.0 0.00 0.00 0.00 77 1018.2
20260506025009 69 143 0.0 0.0 0.00 0.00 0.00 76 1018.2
20260506024507 69 142 0.0 0.0 0.00 0.00 0.00 76 1018.2
20260506024002 69 156 0.0 0.0 0.00 0.00 0.00 76 1018.2
20260506023459 70 171 0.0 0.0 0.00 0.00 0.00 75 1018.2
20260506022956 70 107 0.0 0.0 0.00 0.00 0.00 75 1018.6
20260506022454 70 109 0.0 0.0 0.00 0.00 0.00 76 1018.2
20260506021951 70 124 0.0 0.0 0.00 0.00 0.00 75 1018.2
20260506021449 70 87 0.0 0.0 0.00 0.00 0.00 75 1018.2
20260506020945 70 100 0.0 0.0 0.00 0.00 0.00 75 1018.2
20260506020443 71 97 0.0 1.0 0.00 0.00 0.00 75 1018.2
20260506015940 70 77 0.0 0.0 0.00 0.00 0.00 74 1017.9
20260506015438 70 77 0.0 0.0 0.00 0.00 0.00 74 1018.2
20260506014934 70 75 0.0 0.0 0.00 0.00 0.00 74 1018.2
20260506014431 71 73 0.0 0.0 0.00 0.00 0.00 74 1017.9
20260506013928 71 92 0.0 0.0 0.00 0.00 0.00 72 1018.2
20260506013426 71 91 0.0 0.0 0.00 0.00 0.00 71 1017.9
20260506012922 71 93 0.0 0.0 0.00 0.00 0.00 71 1017.9
20260506012418 71 68 0.0 0.0 0.00 0.00 0.00 71 1017.9
20260506011915 72 68 0.0 0.0 0.00 0.00 0.00 71 1017.9
20260506011413 72 69 0.0 1.0 0.00 0.00 0.00 70 1017.9
20260506010909 72 98 1.0 1.0 0.00 0.00 0.00 69 1017.9
20260506010408 73 93 1.0 1.0 0.00 0.00 0.00 69 1017.9
20260506005904 73 110 1.0 1.0 0.00 0.00 0.00 67 1017.9
20260506005402 73 60 3.0 3.0 0.00 0.00 0.00 66 1017.5
20260506004857 73 55 3.0 5.0 0.00 0.00 0.00 66 1017.5
20260506004355 74 68 3.0 3.0 0.00 0.00 0.00 65 1017.5
20260506003851 74 50 3.0 3.0 0.00 0.00 0.00 66 1017.9
20260506003347 74 60 5.0 7.0 0.00 0.00 0.00 66 1017.5
20260506002844 74 77 5.0 7.0 0.00 0.00 0.00 66 1017.5
20260506002340 74 52 2.0 3.0 0.00 0.00 0.00 65 1017.2
20260506001836 74 48 2.0 3.0 0.00 0.00 0.00 64 1017.2
20260506001333 75 56 3.0 5.0 0.00 0.00 0.00 63 1017.5
20260506000830 75 65 3.0 3.0 0.00 0.00 0.00 62 1017.2
20260506000330 75 64 3.0 3.0 0.00 0.00 0.00 61 1017.5
20260505235825 75 73 2.0 2.0 0.00 0.00 0.00 62 1017.2
20260505235322 75 90 3.0 3.0 0.00 0.00 0.00 60 1017.2
20260505234819 76 63 3.0 6.0 0.00 0.00 0.00 59 1017.2
20260505234317 76 50 4.0 5.0 0.00 0.00 0.00 59 1017.2
20260505233813 76 54 3.0 3.0 0.00 0.00 0.00 59 1017.5
20260505233311 76 64 3.0 3.0 0.00 0.00 0.00 57 1016.9
20260505232808 76 56 5.0 7.0 0.00 0.00 0.00 60 1017.2
20260505232306 77 49 5.0 7.0 0.00 0.00 0.00 59 1017.2
20260505231802 77 78 6.0 6.0 0.00 0.00 0.00 59 1017.2
20260505231301 77 38 6.0 8.0 0.00 0.00 0.00 59 1017.2
20260505230758 77 50 8.0 11.0 0.00 0.00 0.00 59 1017.2
20260505230255 77 45 6.0 8.0 0.00 0.00 0.00 60 1017.2
20260505225752 77 98 5.0 6.0 0.00 0.00 0.00 58 1016.9
20260505225249 78 46 6.0 7.0 0.00 0.00 0.00 58 1017.2
20260505224744 78 70 7.0 11.0 0.00 0.00 0.00 57 1016.9
20260505224242 78 93 5.0 6.0 0.00 0.00 0.00 57 1017.2
20260505223739 79 54 7.0 13.0 0.00 0.00 0.00 56 1017.2
20260505223235 79 40 4.0 6.0 0.00 0.00 0.00 56 1016.9
20260505222731 79 52 2.0 3.0 0.00 0.00 0.00 56 1017.2
20260505222227 79 48 7.0 8.0 0.00 0.00 0.00 56 1017.2
20260505221725 79 67 3.0 5.0 0.00 0.00 0.00 58 1017.2
20260505221221 80 37 8.0 11.0 0.00 0.00 0.00 57 1017.2
20260505220718 79 64 5.0 7.0 0.00 0.00 0.00 57 1016.9
20260505220216 80 44 5.0 7.0 0.00 0.00 0.00 56 1016.9
20260505215714 80 25 8.0 13.0 0.00 0.00 0.00 56 1016.9
20260505215212 80 67 7.0 10.0 0.00 0.00 0.00 56 1017.2
20260505214709 80 89 9.0 10.0 0.00 0.00 0.00 55 1017.2
20260505214206 80 109 6.0 7.0 0.00 0.00 0.00 56 1017.2
20260505213704 79 62 5.0 6.0 0.00 0.00 0.00 58 1017.2
20260505213201 79 37 9.0 10.0 0.00 0.00 0.00 58 1016.9
20260505212656 80 65 6.0 7.0 0.00 0.00 0.00 56 1016.9
20260505212154 79 66 9.0 10.0 0.00 0.00 0.00 57 1016.9
20260505211651 79 39 7.0 10.0 0.00 0.00 0.00 58 1017.2
20260505211148 80 21 5.0 7.0 0.00 0.00 0.00 57 1016.9
20260505210645 80 94 4.0 8.0 0.00 0.00 0.00 56 1016.9
20260505210141 80 44 7.0 8.0 0.00 0.00 0.00 57 1016.9
20260505205639 80 52 3.0 5.0 0.00 0.00 0.00 57 1016.9
20260505205137 80 34 4.0 5.0 0.00 0.00 0.00 57 1016.9